This demonstration page uses our WeatherBlox Daily Observations layout. Learn more.

Left ArrowRight Arrow

Hourly Observations for July 14, 2016

Temp ( °F °C ) Dew Point ( °F °C ) Humidity (%) Winds ( mph kmh ) Pressure ( in mb ) Visibility ( mi km ) Precip ( " mm )
12:58 am 00:58 Clear 65 18.6 65 18.6 100 100 W 2 4 29.94 1014 10 16 0.00 0.00
1:58 am 01:58 Clear 66 18.7 66 18.7 100 100 W 3 6 29.93 1014 10 16 0.00 0.00
2:58 am 02:58 Clear 63 17.4 63 17.4 100 100 Calm 29.93 1014 10 16 0.00 0.00
3:58 am 03:58 Clear 65 18.1 65 18.1 100 100 Calm 29.94 1014 10 16 0.00 0.00
4:58 am 04:58 Clear 62 16.9 62 16.9 100 100 ENE 1 2 29.92 1013 10 16 0.00 0.00
5:58 am 05:58 Clear 64 18 64 18 100 100 WNW 7 11 29.95 1014 10 16 0.00 0.00
6:58 am 06:58 Sunny 67 19.4 67 19.4 100 100 Calm 29.98 1015 10 16 0.00 0.00
7:55 am 07:55 Mostly Cloudy 69 20.7 68 19.9 95 95 NNW 6 9 30.01 1016 10 16 0.00 0.00
8:24 am 08:24 Partly Cloudy 72 22 68 20 88 88 NW 7 11 29.97 1015 10 16 0.00 0.00
8:58 am 08:58 Partly Cloudy 74 23.1 67 19.3 79 79 NW 6 9 29.99 1016 10 16 0.00 0.00
9:58 am 09:58 Mostly Sunny 77 25.2 63 17.3 62 62 N 5 7 30.01 1016 10 16 0.00 0.00
10:58 am 10:58 Sunny 80 26.7 61 15.9 52 52 W 3 6 30.01 1016 8 13 0.00 0.00
11:58 am 11:58 Mostly Sunny 82 27.5 61 15.9 49 49 WNW 7 11 30.01 1016 10 16 0.00 0.00
12:58 pm 12:58 Sunny 84 28.7 59 15.2 44 44 NNE 3 6 30.00 1016 10 16 0.00 0.00
1:58 pm 13:58 Mostly Sunny 85 29.6 62 16.6 45 45 N 6 9 30.00 1016 10 16 0.00 0.00
2:58 pm 14:58 Mostly Sunny 85 29.7 64 17.9 49 49 E 6 9 30.00 1016 10 16 0.00 0.00
3:58 pm 15:58 Mostly Cloudy 86 30 60 15.5 41 41 NW 9 15 30.00 1016 10 16 0.00 0.00
4:58 pm 16:58 Sunny 86 29.8 62 16.6 45 45 NW 10 17 30.00 1016 10 16 0.00 0.00
5:58 pm 17:58 Partly Cloudy 85 29.7 61 16.3 44 44 NNW 8 13 29.99 1016 10 16 0.00 0.00
6:58 pm 18:58 Sunny 84 29 61 16.1 46 46 NW 7 11 29.99 1016 10 16 0.00 0.00
7:58 pm 19:58 Sunny 82 27.6 62 16.5 51 51 N 5 7 29.99 1016 10 16 0.00 0.00
8:58 pm 20:58 Clear 75 24.1 63 17.4 66 66 N 6 9 29.94 1014 10 16 0.00 0.00
9:58 pm 21:58 Clear 72 22 64 17.8 77 77 NNW 2 4 30.00 1016 10 16 0.00 0.00
10:58 pm 22:58 Clear 68 20.1 65 18.6 91 91 Calm 30.00 1016 10 16 0.00 0.00
11:58 pm 23:58 Clear 66 18.8 65 18.5 98 98 Calm 30.00 1016 10 16 0.00 0.00

Powered by AerisWeather